Starlink 35649

operational
NORAD ID: 66125 Int'l Des: 2025-237 Owner: SPXS Country: US Constellation: starlink
LEOCIRCULAR

关于 Starlink 35649

正在加载描述...

实时位置

正在加载3D地球...

即将过境

高度历史

Altitude vs Time

uPlot chart will show altitude changes over time

两行轨道根数

1 66125C 25237M 25298.72479167 -.01171600 00000+0 -19513-2 0 2988
2 66125 53.1551 319.2459 0000859 79.5262 125.1550 16.03408555 15
Epoch: Oct 25, 2025 • Age: 162 hours

当前状态

高度 307.9 km
速度 7.72 km/s
星下点 -47.31°S, 143.31°W
发射日期 Oct 22, 2025
运行时间 9 days
类型 internet

技术详情

分类 Payload
质量 575.00 kg
干质量 530.00 kg
总质量 575.00 kg
长度 0.30 m
直径 4.10 m
跨度 29.00 m
形状 Box + pan
制造商 SPXS
平台类型 Starlink V2MO
阶段状态 In Orbit
所有者/国家 SPXS/US

大型星座

Loading constellations...